CZ-6A DEB

Satellite information

Favourite Embed

Satellite Type and Status

DEBRISIN ORBIT

Key statistics

Satellite CZ-6A DEB at a glance.

Uptime

1091

Days in orbit

Revolutions

≈ 14.1

Per day

Orbit

SSO

Sun Synchronous Orbit

Inclination

98.8

Latest

Satellite identification and parameters

Extended collection of information and parameters for CZ-6A DEB.

Object identification

Identified? True

Debris? True

Object name: CZ-6A DEB

International designator: 2022-151CJ

Object number (NORAD): 54339

Object ID (CCSDS): 54339

Country: PEOPLES REPUBLIC OF CHINA (PRC)

Current information (Y/N): Y

RCS size: SMALL

Orbital parameters

Period: 102.056 minutes

Inclination: 98.8276 deg

SMA: 7234.125 km

Apoapsis: 885.826 km

Periapsis: 826.155 km

RAAN: 307.9105 deg

Eccentricy: 0.00412424

Argument of periapsis: 255.2645 deg

Mean anomaly: 104.3954 deg

Mean motion: 14.10989248 rev/day

Mean motion (dot): 0.00000379 rev/day2

B* drag term: 0.00023383607 1/REarth

Two-line elements (TLE)

Creation date: Nov. 4, 2025, 5:59 p.m.

Reference frame: TEME

Reference center: EARTH

Epoch: Nov. 4, 2025, 10:48 a.m. UTC

TLE line 0: 0 CZ-6A DEB

TLE line 1: 1 54339U 22151CJ 25308.45020994 .00000379 00000-0 23384-3 0 9998

TLE line 2: 2 54339 98.8276 307.9105 0041242 255.2645 104.3954 14.10989248152889

Live tracking on map

Real-time ground track for satellite CZ-6A DEB.

In-orbit conjunctions

A list of the most updated potential collisions computed for object CZ-6A DEB.

Target Orbit TCA Probability of collision Miss distance Type
OBJECT C LEO 2025-11-07 08:52:47 0.00437499 40.0 (m) UNKNOWN

Associated space launch

Chinese satellite reported for atmospheric/ocean/environmental/spatial parameter research purposes, details TBD.

CZ-6A DEB was lifted into orbit during the mission ‘Long March 6A | Yunhai 3’, on board a Long March 6A space rocket.

The launch took place on Nov. 11, 2022, 10:52 p.m. from Launch Complex 9A.

For more information about the launch, click the button.

Launch to space Long March 6A | Yunhai 3
Long March 6A | Yunhai 3

Agency: N/A

Status: Launch Successful

Launch date: Nov. 11, 2022, 10:52 p.m. UTC

Rocket: Long March 6A

Launch pad: Launch Complex 9A

Location: Taiyuan Satellite Launch Center, People's Republic of China

...

Latest news about this satellite

There are no fresh news available about this satellite. Check back as we update our databases every day.


Newsletter sign-up

Weekly statistics, charts and insights to help you stay on top of the space industry.